Regional Weather Roundup
Issued by NWS Burlington, VT

Home | Current Version | Previous Version | Text Only | Print | Product List | Glossary On
Versions: 1 2 3 4 5 6 7 8 9 10 11 12 13 14 15 16 17 18 19 20 21 22 23 24 25 26 27 28 29
000
ASUS41 KBTV 230010
RWRBTV
VERMONT REGIONAL WEATHER ROUNDUP
NATIONAL WEATHER SERVICE BURLINGTON VT
800 PM EDT WED OCT 22 2014

NOTE: "FAIR" INDICATES FEW OR NO CLOUDS BELOW 12,000 FEET WITH NO
SIGNIFICANT WEATHER AND/OR OBSTRUCTIONS TO VISIBILITY.

* THESE REPORTS ARE NOT UNDER NWS QUALITY CONTROL AND/OR DO NOT
  REPORT WEATHER SUCH AS PRECIPITATION AND FOG.

VTZ001>019-230100-
_____VERMONT_____


CITY           SKY/WX    TMP DP  RH WIND       PRES   REMARKS
BURLINGTON     LGT RAIN  52  41  66 N10       30.12F
6HR MIN TEMP:  50; 6HR MAX TEMP:  53; 6HR PCP: TRACE;

MONTPELIER     LGT RAIN  48  42  80 N9        30.13F
6HR MIN TEMP:  47; 6HR MAX TEMP:  49; 6HR PCP:  0.02;

MORRISVILLE    LGT RAIN  50  41  71 N5        30.14S
6HR MIN TEMP:  49; 6HR MAX TEMP:  51; 6HR PCP: TRACE;

ST. JOHNSBURY*   N/A     49  42  77 MISG      30.09F
6HR MIN TEMP:  49; 6HR MAX TEMP:  55; 6HR PCP:  0.01;

LYNDONVILLE*   CLOUDY    48  39  69 N14       30.12S
6HR MIN TEMP:  48; 6HR MAX TEMP:  55;

MIDDLEBURY*    DRIZZLE   48  48 100 CALM      30.07S
6HR MIN TEMP:  47; 6HR MAX TEMP:  49; 6HR PCP:  0.01;

RUTLAND*       CLOUDY    48  43  81 N22       30.01F
6HR MIN TEMP:  46; 6HR MAX TEMP:  48;

SPRINGFIELD    LGT RAIN  47  44  90 N8G18     30.02F FOG
6HR MIN TEMP:  48; 6HR MAX TEMP:  51; 6HR PCP:  0.16;

HIGHGATE*      MOCLDY    49  38  65 N18G25    30.16F
6HR MIN TEMP:  49; 6HR MAX TEMP:  55;

NEWPORT*       CLOUDY    48  40  72 N9        30.15F
6HR MIN TEMP:  48; 6HR MAX TEMP:  51;

BENNINGTON     CLOUDY    50  45  83 N13       29.96F
6HR MIN TEMP:  48; 6HR MAX TEMP:  53; 6HR PCP:  0.01;

SUTTON*          N/A     46 N/A N/A MISG        N/A

_____LAKE CHAMPLAIN_____


CITY           SKY/WX    TMP DP  RH WIND       PRES   REMARKS
COLCHESTER RF*   N/A     54  43  66 N26         N/A
DIAMOND ISL*     N/A     54  43  66 NW28        N/A

$$

NYZ007-026>031-035-052-083-230100-
_____NORTHERN NEW YORK_____


CITY           SKY/WX    TMP DP  RH WIND       PRES   REMARKS
PLATTSBURGH    CLOUDY    51  39  63 N18G28    30.16S
6HR MIN TEMP:  51; 6HR MAX TEMP:  53;

SARANAC LAKE   MOCLDY    43  38  82 NE12      30.11F
6HR MIN TEMP:  42; 6HR MAX TEMP:  44;

MASSENA        PTCLDY    49  36  61 NE15G23   30.22S
6HR MIN TEMP:  49; 6HR MAX TEMP:  52;

OGDENSBURG*    CLOUDY    50  43  76 NE9       30.20S
POTSDAM*       CLOUDY    46  43  87 NE9       30.19F
WATERTOWN      PTCLDY    49  37  63 NE9       30.18S
6HR MIN TEMP:  48; 6HR MAX TEMP:  53;

FT DRUM        CLOUDY    46  38  75 NE9       30.16S
6HR MIN TEMP:  46; 6HR MAX TEMP:  48;

ALBANY         LGT RAIN  51  45  79 N10G28    29.99F
6HR MIN TEMP:  50; 6HR MAX TEMP:  54; 6HR PCP:  0.02;

GLENS FALLS    CLOUDY    53  42  66 N17G25    30.02F
6HR MIN TEMP:  50; 6HR MAX TEMP:  53; 6HR PCP:  0.01;


$$
NHZ002-005-011-230100-
_____NEW HAMPSHIRE_____


CITY           SKY/WX    TMP DP  RH WIND       PRES   REMARKS
LEBANON        LGT RAIN  48  44  86 N10       30.03S FOG
6HR MIN TEMP:  48; 6HR MAX TEMP:  53; 6HR PCP:  0.09;

KEENE          CLOUDY    48  39  71 N15       29.95F
6HR MIN TEMP:  48; 6HR MAX TEMP:  52; 6HR PCP:  0.03;

PLYMOUTH       CLOUDY    49  49  99 CALM      30.02F
6HR MIN TEMP:  49; 6HR MAX TEMP:  55; 6HR PCP:  0.08;

WHITEFIELD     LGT RAIN  47  43  86 NE9       30.08F
6HR MIN TEMP:  47; 6HR MAX TEMP:  53; 6HR PCP:  0.01;


$$

_____REGIONAL QUEBEC LOCATIONS_____


CITY           SKY/WX    TMP DP  RH WIND       PRES   REMARKS
MONTREAL       PTCLDY    48  36  61 NE20      30.22F
QUEBEC CITY    PTCLDY    45  34  65 NE12G18   30.33F
SHERBROOKE     CLOUDY    48  37  66 NE14      30.18F

_____REGIONAL ONTARIO LOCATIONS_____


CITY           SKY/WX    TMP DP  RH WIND       PRES   REMARKS
OTTAWA         PTCLDY    50  41  71 N9        30.24S

______KEY______
VSB  - VISIBILITY IN MILES
WCI  - WIND CHILL INDEX
HX   - HEAT INDEX
$$
NNNN



USA.gov is the U.S. government's official web portal to all federal, state and local government web resources and services.